sat.trackr.live / text

‹ back to catalog

CELESTIS-17 & SHERPA-FX1

NORAD 47486 · 2021-006CB

PAYLOAD ACTIVE UNKNOWN

§ Identity

Operator
Country
US
Launch date
2021-01-24
Launch site
AFETR
Launch vehicle
Mass (kg)
RCS (m²)

External: N2YO · Heavens-Above · Gunter

§ Orbital elements

Epoch: 2026-05-25T02:08:40.411104Z

Period
94.00 min
Inclination
97.2273°
Eccentricity
0.0004675
Mean motion
15.31874694 rev/d
Perigee alt
467.0 km
Apogee alt
473.4 km
Semi-major
6,848.4 km
B*
1.6694e-4
RAAN
186.7116°
Arg perigee
282.5642°
Mean anomaly
77.5077°
Rev number
29,576

§ Raw data

CELESTIS-17 & SHERPA-FX11 47486U 21006CB  26145.08935661  .00005063  00000+0  16694-3 0  99962 47486  97.2273 186.7116 0004675 282.5642  77.5077 15.31874694295762

JSON: /api/v1/satellites/47486 · /tle

For live sub-satellite position, see the globe view (requires WebGL).

§ Visibility from observer

Set your observer location to see the next 7 days of passes ≥ 10°. The values pass through the URL so the page stays shareable.

No JS? Fill the form by hand. The geolocation button needs JavaScript.